Weather in Mikhaylo-Ovsyanka

Russia / Samara Oblast     52°22′01″N   49°44′03″E
temp.,
°C
wind,
m/s
gust,
m/s
humid.,
%
clouds,
%
prec.,
mm/h
press.,
hPa
HPBL,
m
1 march, mon
mon101:00−14nnw489490 0.1 1016275
04:00−17nw469587 0.1 1017113
07:00−19nw459628 0.0 101975
10:00−17nw479314 0.0 1021243
13:00−14nw359025 0.0 1022340
16:00−14nw479149 0.0 1022377
19:00−17w339538 0.0 102321
22:00−17wsw339737 0.0 102325
2 march, tue
tue201:00−17sw449872 0.0 102273
04:00−15sw599678 0.0 1019201
07:00−12sw61295100 0.0 1016303
10:00−7sw81494100 0.5 1013554
13:00−3wsw91495100 1.4 1010760
16:00−1wsw91496100 2.9 1007794
19:00−1wsw81497100 2.1 1005756
22:00−1wsw71396100 3.5 1004615
3 march, wed
wed301:000wnw4798100 0.4 1003400
04:00−4nw3493100 0.4 100385
07:00−8nw339377 0.0 100432
10:00−7nw349453 0.0 1005123
13:00−4wnw35931 0.0 1005276
16:00−4wnw369328 0.0 1006329
19:00−6wnw369663 0.1 1007138
22:00−9nw498953 0.1 1009163
4 march, thu
thu401:00−11nw489224 0.0 1010133
04:00−13w459414 0.0 101170
07:00−13wsw48950 0.0 1012122
10:00−9wsw6109431 0.0 1012309
13:00−6wsw71193100 0.0 1011505
16:00−3wsw9139099 0.1 1009913
19:00−2sw91592100 0.1 1007886
22:000sw101788100 0.1 1006802
5 march, fri
fri501:00−1sw91885100 0.0 1004757
04:00−1sw9188497 0.0 1004680
07:00−1wsw91787100 0.0 1005685
10:000wsw71294100 0.1 1007762
13:000w48100100 0.3 1009414
16:00−1n1589100 1.6 1011393
19:00−3ne1287100 0.2 101221
22:00−4ese1189100 0.3 101424